Wind_Speed
15 14 12 11 11 10 10 10 9 9 9 8 8 7 7 6 6 8 9 9 10 11 12 13 13 13 15 17 18 19 19 19 20 19 18 20 18 11 9 6 3 12 18 14 13 14 6 3 5 8 9 10 11 12 13 12 10 9 9 9 10 10 11
14 13 12 12 11 10 10 10 10 10 9 9 8 7 7 7 7 7 8 9 10 10 11 11 12 13 14 16 17 17 17 16 16 16 16 20 18 11 8 6 7 14 14 9 15 17 9 6 5 4 8 10 9 10 11 10 9 9 9 10 10 11 11
14 13 13 13 12 12 11 12 11 11 10 9 9 8 7 7 7 7 8 8 9 9 10 10 11 13 14 15 16 16 16 15 15 14 14 17 16 11 9 8 9 14 11 7 11 14 10 8 6 6 9 9 7 7 8 8 8 9 9 9 10 11 11
15 15 15 14 14 13 13 13 13 12 11 10 9 8 8 7 6 6 7 8 8 9 10 10 11 12 12 13 14 14 14 13 13 13 13 15 16 14 11 11 11 14 13 11 14 16 13 10 8 7 8 9 8 7 7 6 7 9 8 9 10 11 11
17 17 17 17 16 15 14 14 12 11 11 10 9 7 6 5 4 4 4 6 8 8 9 9 10 10 10 11 13 13 12 12 11 12 13 14 16 16 14 12 13 14 16 17 17 18 17 17 17 10 9 11 8 6 8 7 7 8 8 9 10 11 12
19 19 18 18 17 16 14 13 12 11 11 10 9 7 5 4 3 2 1 4 7 7 7 8 8 9 9 10 12 11 11 10 10 11 12 13 15 16 15 14 13 15 16 16 17 18 17 22 23 14 9 9 7 7 8 6 7 7 7 9 9 10 12
21 20 19 18 17 16 14 12 12 11 11 10 9 7 5 4 3 2 1 4 8 8 7 8 7 8 9 10 10 9 9 9 9 10 11 11 12 14 15 15 14 14 14 13 16 18 18 22 25 20 13 7 7 10 6 5 7 6 5 8 9 10 11
21 20 19 18 17 16 13 12 11 10 9 9 8 6 5 4 3 3 3 5 8 8 7 7 6 7 9 9 9 8 9 9 9 10 10 9 10 12 14 15 14 14 13 12 15 17 18 21 24 26 21 11 5 4 3 4 5 4 5 8 9 10 10
20 19 19 18 17 15 13 11 10 10 9 8 7 7 6 5 4 3 3 4 6 6 6 5 5 6 7 8 9 8 9 9 9 8 8 7 8 10 12 14 14 13 12 12 15 16 17 19 21 24 25 19 11 3 1 2 3 2 6 8 8 9 11
20 18 18 18 18 16 13 12 11 9 8 7 7 8 7 6 4 3 2 2 3 4 4 3 3 5 6 6 8 8 8 8 7 7 7 6 7 9 11 12 12 13 12 12 15 16 15 18 19 20 21 20 17 9 2 1 4 6 8 9 8 9 12
19 17 17 18 18 17 15 13 11 9 8 7 8 8 8 7 4 2 2 2 2 4 4 4 3 4 5 6 7 7 6 6 6 6 6 6 8 9 10 11 11 12 13 13 15 16 15 16 19 19 18 17 16 14 10 5 5 10 12 12 10 10 13
18 17 17 18 18 17 15 13 11 9 8 7 8 8 8 6 4 2 3 3 3 4 5 4 3 4 5 6 6 6 5 6 6 7 7 7 9 10 10 11 12 14 15 15 15 15 14 15 19 20 19 17 14 14 16 11 5 9 15 14 11 12 13
17 17 17 17 17 16 15 13 12 10 9 8 8 8 7 6 3 2 4 5 4 4 4 3 3 3 4 4 5 5 5 5 6 7 8 9 9 9 10 10 12 15 17 18 17 16 14 16 20 22 20 18 15 12 14 14 8 9 16 15 12 13 13
17 16 16 15 15 15 14 13 12 10 9 8 8 8 7 5 4 4 6 6 5 5 4 4 4 4 4 4 4 5 5 6 7 8 9 10 9 9 8 7 8 12 17 19 19 18 16 17 21 24 21 19 17 14 13 13 9 9 15 16 13 13 14
18 17 16 15 14 14 13 13 12 10 9 8 8 8 7 6 5 5 6 6 6 5 4 4 5 5 5 5 4 5 6 8 9 10 10 9 9 8 8 6 5 7 12 16 20 20 19 20 23 25 23 20 19 17 15 13 9 10 15 17 16 15 15
18 17 16 14 13 12 13 13 12 10 8 8 8 8 7 6 5 5 5 6 6 5 4 4 4 5 5 5 4 4 6 8 8 9 9 8 7 8 8 7 5 5 7 10 15 19 20 21 23 24 23 21 21 20 17 15 12 11 14 17 17 16 16
17 16 15 13 12 12 13 13 11 9 7 7 8 8 7 6 5 5 5 6 5 5 4 4 4 5 6 5 4 4 5 7 8 8 8 7 7 8 8 9 8 7 7 8 11 15 18 20 20 21 21 22 22 21 19 18 15 12 12 15 18 18 17
15 14 13 12 11 12 12 11 10 8 7 7 7 6 6 6 5 5 5 5 5 4 3 3 3 4 6 5 4 4 6 7 8 7 6 6 7 9 9 10 10 10 9 10 10 12 15 16 16 17 19 20 21 22 20 19 17 14 12 13 16 18 18
14 13 13 12 12 12 12 10 9 8 7 7 7 6 5 5 5 6 6 5 5 4 2 3 3 4 5 6 5 5 7 8 7 7 6 6 8 9 10 10 10 10 10 10 11 11 12 13 13 14 14 15 18 20 21 20 19 17 15 12 13 17 18
11 12 13 12 11 11 11 9 8 8 8 8 7 5 4 4 4 5 6 5 5 4 2 2 3 3 5 5 5 6 8 8 8 7 7 7 7 8 8 8 8 9 8 8 9 10 11 12 12 12 11 11 12 15 17 19 19 18 16 14 13 15 17
8 10 10 9 9 9 10 9 8 8 9 9 7 5 4 4 3 4 4 4 4 4 4 2 2 3 3 3 3 5 7 9 8 7 7 7 7 7 7 7 6 6 7 7 7 8 9 10 11 11 11 10 10 11 14 17 19 18 16 15 14 15 16
10 9 8 8 9 10 10 9 8 8 9 9 7 5 4 4 5 5 4 4 4 5 5 3 2 2 2 2 2 3 5 8 8 7 7 8 8 8 8 8 7 7 7 7 7 8 8 8 9 10 11 11 11 12 13 16 17 17 16 15 15 15 16
10 8 6 7 9 9 9 8 8 8 8 8 7 6 4 4 4 5 5 5 5 5 5 4 3 3 4 5 5 5 6 7 9 9 8 8 9 9 9 10 10 10 10 10 10 9 9 9 9 9 10 11 12 13 14 16 17 17 17 17 17 17 17
10 8 6 6 7 6 6 7 7 7 7 7 7 6 5 3 3 4 5 6 7 7 7 6 5 5 5 6 7 7 8 8 10 10 10 10 10 10 11 12 13 13 13 13 12 12 11 11 11 11 11 11 12 13 14 16 17 18 19 19 19 17 18
15 14 13 12 11 10 9 8 7 7 6 6 5 4 3 2 3 3 2 3 5 7 7 8 9 9 8 8 8 9 9 10 11 12 13 13 13 14 15 15 16 16 16 16 15 15 14 13 13 13 13 13 12 13 14 16 17 18 19 20 20 20 20
22 20 19 18 16 15 14 13 11 10 10 9 8 7 7 6 6 5 3 2 1 0 2 5 7 9 10 10 11 11 12 13 13 14 14 15 16 17 19 20 20 20 19 19 18 18 17 16 17 16 16 16 15 15 15 16 17 18 18 19 20 21 21
27 25 23 21 19 19 18 17 16 14 13 11 10 11 10 9 8 7 6 6 5 4 3 2 3 5 7 9 10 12 13 14 15 17 18 18 19 20 21 22 23 23 23 22 21 21 20 20 20 20 20 20 19 19 18 19 19 19 20 20 20 20 20
28 27 26 24 23 22 20 19 18 16 14 14 14 14 13 12 11 10 9 8 7 6 5 3 3 3 5 6 7 8 10 11 13 15 17 19 21 23 23 24 24 24 24 24 23 23 24 24 24 24 23 23 23 23 22 22 21 21 22 22 22 23 22
24 22 22 23 24 24 22 20 18 16 14 14 14 14 14 14 14 12 11 10 8 8 7 6 5 5 6 6 7 8 9 11 12 13 14 15 17 19 21 23 24 25 26 26 26 25 25 25 25 26 26 26 26 26 25 24 23 22 22 22 21 22 22
21 18 17 18 20 20 20 20 19 17 15 13 13 14 14 14 14 13 12 11 10 10 10 8 7 7 7 7 8 9 10 12 13 14 16 16 16 17 17 18 20 22 24 26 27 27 26 25 25 26 27 27 27 27 26 25 25 24 23 22 21 22 22
20 18 16 15 15 13 12 13 15 16 16 15 14 13 13 12 12 12 12 11 11 10 10 10 10 9 9 9 9 9 10 12 13 15 16 17 18 17 17 17 18 20 22 23 24 24 25 24 25 25 27 27 27 27 27 27 27 27 25 23 23 24 23
18 18 16 15 14 11 9 8 9 11 13 14 13 13 12 11 11 11 11 10 10 10 10 10 10 10 11 11 11 11 12 13 13 14 16 18 19 19 19 18 18 19 20 22 22 22 23 23 24 25 26 26 27 28 29 29 29 28 25 22 21 21 19
17 16 14 13 12 12 10 9 8 8 9 11 11 12 11 11 11 10 10 10 10 10 11 10 10 10 11 12 12 13 13 14 15 16 17 18 20 21 21 20 20 19 19 20 21 22 22 23 24 25 26 27 28 29 30 29 28 27 24 20 19 18 16
16 15 13 11 11 11 11 10 9 8 7 7 9 10 11 11 11 10 10 11 11 11 12 13 13 12 12 13 14 14 15 15 17 18 19 20 21 22 23 23 22 21 21 22 22 22 22 22 24 26 27 28 29 29 29 28 26 24 23 21 20 19 17
14 14 13 11 11 11 11 9 9 8 8 8 9 10 12 12 12 12 12 12 12 13 14 15 16 15 14 14 15 16 16 17 17 19 21 22 23 24 25 25 24 23 22 23 24 24 23 22 22 24 27 28 29 29 28 27 24 22 22 23 21 20 19
14 13 13 12 12 11 11 10 10 10 10 11 12 12 13 13 14 14 14 14 14 14 15 15 16 17 17 16 16 16 16 17 17 18 20 21 23 24 24 25 25 25 24 24 24 24 25 23 21 22 23 24 27 28 28 26 24 23 24 24 23 22 22
14 14 14 14 13 13 13 12 12 12 12 12 12 13 13 13 14 15 16 16 16 16 16 16 16 17 17 17 17 17 17 17 17 18 20 21 22 23 23 23 24 24 25 26 25 25 25 24 23 22 21 21 24 26 27 27 25 24 25 25 25 24 24
Wind_Direction
179 176 177 178 177 175 171 169 165 163 166 168 171 173 171 174 180 183 185 188 192 192 189 188 189 188 187 189 191 191 194 191 187 183 179 182 185 182 173 167 156 164 163 159 156 149 129 104 106 97 105 117 121 120 117 110 98 85 83 89 93 91 92
183 176 173 175 172 170 166 161 159 158 159 159 159 157 154 157 161 169 179 187 196 199 196 193 192 193 192 193 193 193 197 197 197 199 196 193 191 180 166 159 149 157 160 158 154 145 127 131 140 122 122 121 118 117 117 113 98 88 89 93 100 102 101
182 178 174 173 170 165 160 155 152 150 149 148 148 146 145 146 150 159 170 181 192 198 200 195 191 194 196 197 197 196 198 201 203 209 211 206 198 184 180 183 161 156 154 147 150 144 126 117 127 148 147 134 125 118 119 121 107 95 94 98 105 108 108
182 179 176 174 170 163 156 151 148 145 143 143 142 141 140 139 142 151 164 175 182 189 194 193 189 191 194 195 196 196 199 203 206 209 212 211 202 190 194 203 191 180 179 181 171 155 140 127 127 143 144 131 127 126 130 134 118 104 99 106 114 113 114
181 179 177 175 170 164 158 154 153 151 149 149 147 143 142 139 134 139 158 175 179 180 185 187 187 190 192 192 193 196 199 203 208 208 207 208 202 197 201 207 207 204 200 197 184 167 160 153 144 138 134 129 123 130 145 145 125 113 109 116 122 121 119
180 180 178 177 172 168 165 163 165 165 163 161 157 157 159 155 153 151 162 179 175 167 168 176 184 189 193 192 192 197 202 204 206 205 205 205 205 206 206 201 204 210 209 203 188 175 168 157 145 135 134 135 132 140 149 150 135 123 123 128 127 127 125
182 183 181 179 175 173 172 172 174 174 173 171 169 171 172 160 159 167 164 174 171 162 161 171 180 190 195 194 194 199 202 202 200 198 201 204 204 207 207 202 204 209 209 204 191 180 171 160 151 143 135 117 123 139 146 159 152 137 135 138 133 129 127
185 186 185 182 179 178 177 177 176 173 175 177 176 177 172 157 152 154 140 152 163 164 167 175 184 197 202 201 201 205 204 202 200 198 199 202 202 202 204 205 206 205 205 202 195 188 180 172 164 158 150 132 115 133 136 162 165 154 150 149 140 135 132
189 189 190 187 184 180 179 178 173 169 172 176 177 173 164 154 150 151 143 148 163 171 174 181 194 204 204 203 203 205 204 202 202 203 204 204 204 201 200 204 206 203 202 202 198 193 185 180 176 170 164 155 147 143 40 163 192 197 167 162 155 148 143
192 192 191 189 185 181 181 180 174 171 171 169 170 167 164 160 157 165 175 179 192 195 189 185 195 199 193 193 197 198 202 204 203 203 204 204 202 201 198 200 202 200 196 198 199 195 189 186 183 179 179 172 161 152 128 177 216 210 187 177 171 161 156
193 192 188 184 183 182 183 184 180 175 169 167 168 168 169 169 169 185 189 180 188 185 181 178 179 184 181 182 189 193 199 204 198 192 193 194 189 188 190 190 191 193 193 194 196 196 196 197 193 186 190 191 175 162 159 161 206 208 195 187 182 172 165
192 189 183 181 182 183 185 186 185 180 172 171 175 176 178 178 183 202 180 162 154 160 165 172 175 177 181 183 183 181 185 188 187 185 184 183 179 177 181 185 187 190 193 193 193 196 202 205 202 196 195 197 190 177 170 162 173 205 200 194 184 175 171
192 188 184 181 182 185 187 188 186 183 176 175 180 183 185 185 185 180 164 157 142 137 146 152 153 158 162 163 163 165 170 175 181 181 175 171 171 172 178 188 193 193 194 196 194 195 201 206 205 202 202 201 197 191 181 171 164 187 195 194 183 176 176
190 188 186 184 185 185 187 187 185 181 175 176 184 186 185 183 171 156 156 158 147 130 128 128 124 131 142 146 149 151 157 162 163 162 163 163 165 169 174 185 198 198 199 203 203 201 200 202 203 202 205 207 206 204 198 188 168 166 186 193 186 181 183
187 188 188 188 186 183 184 184 182 179 176 178 184 185 183 177 162 152 153 158 159 148 139 141 140 144 153 157 150 141 152 161 156 151 155 159 164 169 170 174 192 199 200 206 209 209 204 199 201 203 207 213 217 216 212 204 185 167 182 192 190 190 193
187 190 189 186 181 177 179 180 178 177 176 176 178 177 179 178 170 164 159 158 164 164 164 170 172 174 177 181 175 160 162 169 164 157 155 155 162 172 171 171 179 190 195 200 203 205 203 201 203 207 211 218 225 226 222 215 204 187 187 192 193 197 201
188 188 184 178 175 174 175 176 175 175 174 170 171 173 177 181 179 173 171 171 172 171 172 175 182 191 193 192 194 189 181 182 180 175 171 168 174 182 182 176 171 171 176 180 187 195 200 205 209 213 219 225 229 232 228 220 213 206 199 196 198 202 205
183 185 180 171 169 171 173 175 174 172 170 167 170 173 171 173 173 168 170 175 173 171 179 185 189 198 197 190 192 198 193 189 188 188 193 196 195 193 191 183 170 161 162 163 168 182 194 205 212 218 227 233 235 235 230 221 217 218 217 210 204 205 208
179 182 178 169 168 172 174 178 177 172 168 166 167 168 160 158 165 170 174 174 172 175 191 205 206 208 206 201 201 204 198 191 193 200 204 205 203 199 195 189 179 172 171 171 172 180 190 199 208 216 225 234 238 237 231 223 220 222 226 226 216 209 209
172 177 174 168 170 174 175 179 181 175 171 169 169 172 169 162 161 170 181 185 188 197 205 210 216 216 215 215 217 214 206 202 203 202 199 195 194 195 198 200 199 196 197 201 202 202 204 206 211 216 220 226 232 234 228 221 219 221 224 227 223 215 211
166 169 167 162 168 182 185 186 188 186 180 179 184 190 192 196 195 190 193 196 200 204 203 209 223 217 216 221 225 221 214 214 214 210 209 208 203 202 206 210 216 218 220 227 235 235 231 229 228 227 225 224 225 226 222 217 217 219 222 224 225 221 216
173 171 170 169 178 189 191 191 194 196 194 196 205 212 213 231 238 228 219 211 205 204 204 210 220 221 241 260 268 252 227 224 228 229 231 234 231 230 233 237 241 245 247 249 251 251 249 247 245 242 239 233 228 224 221 221 223 225 225 224 224 223 219
168 174 181 177 179 184 186 189 190 192 199 206 213 222 236 250 243 232 230 224 213 209 211 222 240 248 255 262 269 268 252 240 239 241 243 243 243 245 248 254 258 261 266 268 265 260 255 253 252 251 251 249 244 239 232 228 230 232 231 228 227 224 221
139 144 142 145 150 154 169 181 184 187 196 202 209 222 238 241 213 214 231 230 220 218 223 233 244 252 257 260 263 266 265 258 252 251 252 250 251 254 257 262 265 267 272 275 275 271 265 260 255 251 251 252 253 253 250 246 243 239 235 233 234 233 229
112 113 112 113 114 113 124 135 138 145 150 151 164 177 169 147 150 173 214 236 233 234 244 253 255 257 260 262 264 265 267 267 264 261 260 260 261 263 264 266 267 266 269 270 270 269 266 264 262 258 255 253 250 251 253 253 252 249 244 240 239 241 242
93 94 96 98 101 102 103 102 100 101 103 110 121 123 117 114 112 118 127 124 119 251 279 276 270 267 266 265 265 265 265 266 266 265 265 265 267 268 270 271 271 270 270 270 267 263 262 262 262 260 258 255 252 249 247 248 251 252 252 250 246 249 251
82 80 83 88 92 91 86 82 81 83 88 93 95 96 96 97 95 93 93 93 89 80 61 345 292 278 275 271 269 269 269 270 270 268 269 269 269 271 272 273 275 276 276 275 272 268 265 264 264 262 260 257 254 250 247 246 246 246 249 250 249 252 257
75 72 72 75 77 76 72 69 70 71 75 77 75 77 80 80 80 79 77 80 83 74 55 19 328 298 288 284 280 278 276 276 276 275 275 275 274 274 274 273 274 276 277 277 276 273 271 270 268 265 262 260 258 255 251 248 246 245 246 246 248 252 255
67 63 62 61 61 60 56 54 53 52 59 66 65 65 67 66 66 67 68 72 71 61 47 25 357 330 310 298 290 285 281 278 278 277 278 281 283 283 282 281 279 278 278 278 278 277 276 273 270 266 263 262 259 256 254 252 250 248 246 246 249 251 251
60 56 55 52 48 49 47 44 40 36 39 47 51 52 52 52 53 52 53 55 53 48 42 28 12 354 336 321 307 299 293 286 281 277 274 275 279 285 288 291 291 287 284 281 280 280 278 274 269 264 262 260 258 254 251 251 251 250 250 250 251 251 252
58 55 55 50 43 39 35 32 30 28 27 30 36 40 41 41 41 39 38 37 33 32 33 28 16 5 355 344 332 323 313 303 294 288 281 274 273 276 278 281 287 290 287 285 283 281 279 275 268 262 258 255 252 251 251 253 253 252 251 251 252 254 257
60 59 60 59 53 48 39 24 13 10 15 20 24 27 29 31 30 28 25 21 13 9 13 13 9 4 358 350 343 336 329 322 313 305 298 289 283 280 276 274 276 281 284 286 287 285 281 276 269 266 263 256 250 252 258 260 258 258 257 254 253 254 252
63 64 65 64 59 56 49 36 18 1 359 0 2 9 17 24 25 23 17 9 1 356 354 352 353 353 349 343 339 334 331 330 325 319 313 307 300 293 288 283 279 278 282 286 287 287 284 278 273 270 266 259 254 260 267 266 262 263 262 254 245 243 237
62 63 63 60 57 54 46 39 32 22 7 357 355 360 6 10 11 10 5 359 353 349 344 341 338 337 336 334 330 327 326 328 327 321 316 312 308 304 300 296 292 288 286 285 285 286 285 282 278 273 268 265 265 267 269 268 265 261 253 244 234 228 221
56 55 52 47 47 48 44 37 31 25 16 8 5 4 2 359 356 352 350 346 343 340 336 333 329 326 324 324 323 321 320 320 320 319 314 309 306 303 303 301 299 295 291 287 285 283 282 281 279 275 272 271 271 270 268 266 263 253 241 233 224 213 207
48 46 42 40 39 39 39 36 29 24 17 10 7 5 1 356 351 347 344 340 338 335 331 328 326 323 320 317 317 317 316 315 314 313 311 307 303 301 300 299 296 294 291 286 283 281 279 277 276 274 274 273 270 266 262 258 253 243 231 221 211 205 204
48 45 42 39 36 34 31 28 24 22 17 12 9 6 2 358 353 348 344 339 336 334 332 327 324 323 321 317 314 312 311 311 312 311 307 304 302 301 300 298 295 292 288 283 279 277 275 273 271 270 272 274 269 260 252 247 242 233 221 210 205 205 204
Height
814 815 817 818 819 821 822 823 824 825 825 827 828 829 830 830 831 832 833 834 835 836 837 838 840 841 842 843 845 846 847 848 849 850 851 851 852 853 854 854 854 855 855 856 858 860 865 871 873 872 872 873 873 873 873 874 874 874 874 874 874 874 874
814 816 817 818 820 821 822 823 824 825 826 827 828 829 830 831 831 832 833 834 835 836 837 838 839 841 842 843 845 846 847 848 849 850 850 850 851 853 854 855 855 855 856 857 859 859 862 867 872 873 873 873 874 874 874 875 875 875 875 875 875 875 876
814 816 817 819 820 821 823 823 824 826 827 827 828 829 830 831 832 832 833 834 835 836 837 838 839 841 842 843 844 845 846 847 848 849 850 850 852 853 853 854 854 855 856 857 859 860 861 864 868 871 872 873 874 875 876 876 876 876 876 876 876 877 877
815 817 818 819 821 822 823 824 825 826 827 828 829 830 830 831 832 833 834 835 835 836 837 838 839 841 842 843 844 845 845 846 847 848 849 850 851 852 853 853 854 854 855 855 856 858 860 862 866 870 872 873 874 876 876 877 877 877 877 877 877 878 878
816 817 818 820 821 822 823 825 826 827 828 828 829 830 831 831 832 833 834 835 835 836 837 838 840 841 842 843 843 844 845 846 846 847 848 849 850 851 852 853 853 853 853 854 855 857 859 861 864 869 872 873 875 876 877 878 878 878 878 878 879 879 879
816 818 819 821 822 823 824 825 826 827 828 829 830 830 831 831 832 833 834 835 835 836 837 838 840 841 841 842 843 844 844 845 846 846 847 848 849 850 851 851 852 853 854 854 856 858 859 861 863 867 871 873 875 876 878 878 878 879 879 879 879 879 879
817 818 820 821 823 824 825 826 826 827 828 829 830 831 831 832 832 833 834 835 835 837 838 838 839 840 841 842 843 844 844 845 845 846 847 848 848 849 850 851 852 853 854 855 857 858 859 861 863 866 870 874 876 877 878 878 878 879 879 879 879 879 879
817 819 820 822 823 824 826 826 827 828 829 830 830 831 831 832 832 833 834 835 836 837 838 839 840 840 841 842 843 844 844 845 845 846 847 848 848 849 850 851 852 853 854 855 857 858 859 861 862 864 867 871 876 878 878 878 878 878 878 879 879 879 879
818 819 820 822 823 825 826 826 827 828 829 830 830 831 832 832 833 834 834 835 836 837 838 839 839 840 841 842 843 844 844 845 846 846 847 848 848 849 850 851 852 853 855 856 857 859 860 861 862 863 864 866 871 876 879 879 878 878 878 878 879 879 879
818 819 820 821 823 824 825 826 827 828 829 830 830 831 832 833 833 834 835 835 836 837 837 838 839 840 841 842 843 844 844 845 846 846 847 848 848 849 850 851 852 854 855 856 858 859 860 861 862 864 865 865 866 871 876 878 878 877 877 878 879 879 879
817 818 819 821 822 823 825 826 827 827 828 829 830 831 832 833 833 834 834 835 836 836 837 838 839 840 840 842 842 843 844 844 845 846 846 847 848 849 850 851 852 854 855 856 858 859 860 862 863 864 865 866 866 868 871 874 876 876 877 877 878 878 879
818 819 820 821 823 824 825 826 827 827 828 829 830 831 832 833 833 834 834 835 835 836 837 838 839 839 840 842 842 843 844 844 845 845 846 847 847 848 849 851 852 853 855 856 857 859 860 861 863 864 865 866 867 867 868 871 873 875 876 877 877 878 878
818 820 821 822 823 824 825 826 826 827 828 829 830 831 832 832 833 833 834 835 835 836 837 838 838 839 840 841 842 843 844 844 845 845 846 847 847 848 849 850 851 852 854 855 857 859 860 861 863 864 865 866 867 868 868 869 871 872 874 876 877 877 878
818 820 821 822 823 824 825 826 827 828 828 829 830 831 831 832 832 833 833 834 835 836 837 838 839 840 840 842 843 843 844 845 845 846 846 847 848 849 850 850 851 852 853 854 856 858 859 861 862 863 865 866 866 867 868 869 870 871 873 875 876 877 877
817 819 821 822 823 823 825 826 827 828 828 829 830 831 832 832 832 833 833 834 836 836 838 839 839 841 841 842 843 844 845 846 846 847 847 848 849 849 850 851 851 852 853 854 855 857 859 860 861 863 864 865 866 867 868 869 870 871 872 874 875 876 877
816 818 819 821 822 823 824 826 827 828 829 829 830 831 832 832 833 834 834 835 836 837 838 839 840 841 842 843 844 845 846 847 847 848 848 849 850 850 851 851 852 852 852 853 855 856 858 860 861 862 864 865 865 866 867 869 869 870 871 873 874 875 876
816 818 819 820 821 823 824 826 827 829 829 830 831 831 832 833 833 834 835 836 837 838 839 840 841 842 843 844 845 846 847 848 848 849 849 850 851 851 852 852 852 853 853 854 855 856 858 860 861 862 863 864 865 865 867 868 869 870 870 871 872 873 875
817 819 820 820 821 823 825 826 828 829 830 830 831 832 832 833 834 834 835 836 837 838 839 840 841 842 843 844 845 846 847 848 849 849 850 851 851 852 852 853 853 854 854 855 856 857 858 860 861 862 863 863 864 864 865 867 868 869 869 870 871 872 873
818 819 821 821 822 823 825 827 828 829 830 831 832 832 833 833 834 834 835 836 837 838 839 840 841 842 843 844 845 846 847 848 849 850 850 851 852 852 853 854 854 855 855 856 857 858 859 860 861 861 862 862 863 863 864 865 867 867 868 869 869 870 872
818 820 821 822 823 824 825 827 828 829 830 831 832 833 833 833 834 834 835 836 837 838 839 840 841 842 843 844 845 846 847 848 849 850 850 851 852 853 853 854 855 856 856 857 858 859 859 860 860 861 862 862 862 862 863 864 866 867 867 868 868 869 870
819 821 822 823 825 826 827 827 828 829 830 831 832 832 833 833 834 834 835 835 836 837 838 840 841 842 843 844 845 845 846 847 848 849 850 851 852 853 854 855 855 856 857 858 859 859 860 860 860 861 861 861 862 862 862 863 864 865 866 867 867 868 869
820 822 822 823 825 827 827 828 828 830 830 831 832 832 833 833 833 834 834 835 836 837 838 839 840 841 842 843 844 845 845 846 847 849 850 850 851 852 853 854 855 856 857 858 858 859 859 860 860 860 861 861 861 862 862 863 864 864 865 865 866 867 867
819 821 822 823 825 826 827 828 829 830 830 831 832 832 833 833 833 834 834 834 835 836 837 839 840 841 842 842 843 844 844 845 846 847 848 849 850 851 852 854 854 855 856 857 858 858 858 859 859 860 860 860 860 861 861 862 863 863 863 864 864 865 865
818 820 822 823 824 825 826 827 829 830 830 831 831 832 832 832 832 833 834 834 835 836 837 838 839 840 841 842 842 843 843 844 845 846 847 848 849 850 851 852 853 854 855 855 856 857 857 858 858 858 859 859 859 860 860 861 861 861 862 862 862 863 863
818 820 822 823 824 825 826 827 829 830 830 831 832 832 832 832 832 832 833 834 835 836 837 838 839 840 840 841 842 842 842 843 844 845 846 847 848 848 849 850 851 852 853 854 855 855 856 856 857 857 857 858 858 858 859 859 859 860 860 860 861 861 862
820 821 822 823 824 826 827 828 830 830 831 832 833 832 833 832 832 833 833 834 835 836 836 837 837 838 839 840 840 841 841 842 843 844 844 845 846 846 847 848 849 850 851 852 853 854 854 855 855 855 856 856 857 857 857 857 858 858 859 859 859 860 860
822 823 824 825 825 827 828 830 831 832 833 834 834 833 833 833 833 833 834 834 835 836 836 836 837 838 838 838 839 839 840 840 841 842 843 843 844 844 845 846 847 848 849 850 851 851 852 853 853 853 854 854 854 855 855 855 856 856 857 857 857 858 858
824 825 827 827 827 828 830 832 833 834 834 835 835 835 834 833 833 833 834 835 835 836 836 837 837 837 838 838 838 838 839 839 839 840 841 842 842 843 843 844 845 846 846 848 849 849 850 851 851 851 852 852 852 852 853 853 853 854 854 854 855 856 856
825 827 829 829 829 829 831 833 835 836 836 836 836 836 835 834 834 834 835 836 836 836 837 837 837 837 837 837 837 837 837 838 838 838 839 840 840 841 841 842 843 843 844 845 846 847 848 848 849 849 849 850 850 850 850 850 851 851 851 852 852 853 853
827 829 830 830 831 832 833 834 836 837 837 836 836 835 835 835 834 835 835 836 837 837 837 837 837 837 837 837 836 836 836 836 837 837 837 837 838 838 839 840 840 841 841 842 843 844 845 845 846 846 847 847 847 847 848 848 848 848 849 849 849 850 850
830 831 831 832 833 834 834 836 837 838 838 837 836 836 835 834 834 835 836 837 838 839 839 839 838 838 837 837 837 836 836 836 836 836 835 835 836 836 836 837 837 838 838 839 840 841 841 842 842 842 843 843 843 844 845 846 846 845 846 846 846 847 847
833 834 834 835 836 836 836 837 837 838 839 839 838 836 835 834 834 835 836 837 838 839 839 840 839 839 838 837 837 836 836 835 835 835 834 834 833 834 834 834 835 835 835 836 837 837 838 838 838 839 839 839 840 840 841 842 842 842 843 843 844 844 844
835 836 837 838 838 837 837 837 837 837 839 840 839 837 836 835 835 836 837 837 838 838 839 839 839 839 838 837 836 836 835 835 834 833 833 832 832 831 832 832 833 833 834 834 834 835 836 836 836 836 836 836 836 837 838 839 840 840 841 841 841 841 842
836 838 838 838 838 838 837 837 837 838 839 840 840 838 836 835 835 836 836 837 837 837 837 837 837 837 837 836 835 835 834 834 833 832 831 831 830 829 829 829 830 831 832 832 832 832 833 833 833 833 832 832 833 834 835 836 837 838 838 838 839 839 840
836 837 838 838 838 838 838 838 839 839 839 838 837 836 834 834 834 835 835 835 835 835 835 835 835 835 834 834 834 833 833 832 832 830 829 828 828 827 827 827 827 828 828 828 828 829 829 830 831 830 830 830 830 831 831 832 833 835 835 835 836 837 838
836 837 837 838 838 838 838 838 838 837 837 836 835 834 833 833 833 833 833 833 834 834 834 834 834 834 833 833 832 832 832 831 831 830 828 827 827 826 825 825 824 825 825 825 824 825 825 826 827 826 826 827 828 828 828 829 830 831 832 833 834 834 836
837 837 837 837 837 837 837 836 836 835 835 834 834 834 833 833 832 832 832 832 833 833 833 833 834 834 833 832 831 831 830 830 829 829 827 826 826 825 824 823 823 822 822 821 821 820 820 821 822 822 823 823 824 825 825 826 827 828 829 830 831 832 833